Location: Clyde
(45.1830°S, 169.3170°E)
Time: 06:19:27
(UTC+12:00)

BREEZE-M DEB (TANK) - Visible Passes

Search period start: 25 April 2019 00:00
Search period end: 05 May 2019 00:00
Orbit: 291 x 13993 km, 46.1° (Epoch: 24 April)

Date Brightness Start Highest point End Pass type
(mag) Time Alt. Az. Time Alt. Az. Time Alt. Az.
25 Apr 9.1 04:18:46 10° NNE 05:51:16 40° ENE 06:23:26 10° ESE visible
26 Apr 9.7 02:50:37 10° ENE 03:22:43 14° E 03:44:22 10° E visible
26 Apr 8.1 06:24:52 10° NNW 08:13:08 66° NE 08:35:56 10° ESE visible
27 Apr 9.1 04:04:09 10° NNE 05:38:10 40° ENE 06:11:21 10° ESE visible
28 Apr 9.7 02:34:53 10° ENE 03:09:43 14° E 03:32:49 10° E visible
28 Apr 8.2 06:10:09 10° NNW 08:00:15 67° NE 08:23:52 10° ESE visible
29 Apr 9.1 03:49:33 10° NNE 05:24:57 41° ENE 05:59:11 10° ESE visible
30 Apr 9.6 02:19:17 10° ENE 02:56:36 15° E 03:21:03 10° ESE visible
30 Apr 8.2 05:55:25 10° NNW 07:47:14 68° NE 08:11:43 10° ESE visible
01 May 9.1 03:34:57 10° NNE 05:11:36 42° ENE 05:46:54 10° ESE visible
02 May 9.6 02:03:46 10° ENE 02:43:21 15° E 03:09:04 10° ESE visible
02 May 8.3 05:40:40 10° NNW 07:34:05 68° NE 07:59:29 10° ESE visible
03 May 9.1 03:20:21 10° NNE 04:58:07 42° ENE 05:34:32 10° ESE visible
04 May 9.6 01:48:21 10° ENE 02:30:00 16° E 02:56:54 10° ESE visible
04 May 8.4 05:25:55 10° NNW 07:20:48 69° NE 07:47:09 10° ESE visible
